Content
SEND FEEDBACK

Daily
Averages
Monthly
Summary
United States of America

ALPINE MEADOWS, CALIFORNIA


Home > North America > United States > California
Elevation: 6230 feet     Latitude: 39 12N     Longitude: 120 14W

WEATHER
 
SELECT A DAY
Number of Records: 289,062;   Date Range: 1/1/95 - 11/22/14
 
SHARE

PRINT THIS DATA

[ ← Previous Day ]
WEATHER ALMANAC - AUGUST 8, 2014
[ Next Day → ]
[ °C ]   °F
Weather ElementAverageHighLow
Temperature57.5 °F82.4 °F (1:50 pm)42.8 °F (4:15 am)
Dewpoint42.5 °F51.8 °F (12:15 am)35.6 °F (6:15 pm)
Humidity66.3 %100 % (1:15 am)21 % (12:45 pm)
Barometer30.19 in30.22 in (12:50 pm)30.14 in (4:45 pm)
Wind Speed3 mph13.8 mph (2:45 pm)
Wind Gust20.7 mph (11:45 am)
Weather ElementAverage
Visibility8.4 mi
Wind DirectionE (85 °)

Weather ElementTotal
Precipitation---
Heating Degree Days2.4 (Base 65)
Growing Degree Days12.6 (Base 50)
Averaged from 50 records on August 8, 2014
WEATHER CONDITIONS BREAKOUT
WIND DIRECTION BREAKOUT
WEATHER BY HOUR - AUGUST 8, 2014
[ °C ]   °F
Local TimeTemperatureDewpointHumidityBarometerVisibilityWind DirectionWind SpeedGust SpeedPrecipitationEventsConditions
12:15 AM51.8 °F48.2 °F88 %30.22 in10.0 miCalmClear
12:35 AM51.8 °F48.2 °F88 %30.22 in10.0 miCalmClear
12:55 AM48.2 °F46.4 °F93 %30.22 in10.0 miCalmClear
1:15 AM50.0 °F46.4 °F87 %30.22 in10.0 miCalmClear
1:35 AM48.2 °F46.4 °F93 %30.22 in10.0 miCalmClear
1:55 AM50.0 °F46.4 °F87 %30.21 in10.0 miCalmClear
2:15 AM48.2 °F46.4 °F93 %30.21 in10.0 miCalmClear
2:35 AM46.4 °F46.4 °F100 %30.21 in7.0 miCalmClear
2:55 AM46.4 °F44.6 °F93 %30.21 in10.0 miCalmClear
3:15 AM44.6 °F44.6 °F100 %30.20 in10.0 miCalmClear
3:35 AM44.6 °F44.6 °F100 %30.21 in5.0 miCalmClear
3:55 AM44.6 °F44.6 °F100 %30.20 in7.0 miCalmClear
4:15 AM44.6 °F44.6 °F100 %30.20 in0.8 miCalmScattered Clouds
4:35 AM44.6 °F44.6 °F100 %30.20 in5.0 miCalmClear
4:55 AM44.6 °F44.6 °F100 %30.20 in1.2 miCalmMist
5:15 AM44.6 °F44.6 °F100 %30.20 in0.2 miCalmFogFog
5:35 AM44.6 °F44.6 °F100 %30.20 in0.8 miCalmMostly Cloudy
5:55 AM44.6 °F44.6 °F100 %30.20 in0.5 miCalmFogFog
6:15 AM42.8 °F42.8 °F100 %30.21 in0.2 miCalmFogFog
6:35 AM42.8 °F42.8 °F100 %30.21 in0.2 miCalmFogFog
6:50 AM42.8 °F42.8 °F100 %30.21 in10.0 miCalmPartly Cloudy
7:50 AM51.8 °F48.2 °F88 %30.22 in10.0 miCalmClear
8:50 AM57.2 °F51.8 °F82 %30.21 in10.0 miCalmClear
9:45 AM64.4 °F51.8 °F64 %30.20 in10.0 miCalmClear
10:55 AM73.4 °F48.2 °F41 %30.19 in10.0 miCalmPartly Cloudy
11:45 AM78.8 °F44.6 °F30 %30.19 in10.0 miWSW (250°)8.1 mph20.7 mphPartly Cloudy
12:45 PM80.6 °F37.4 °F21 %30.18 in10.0 miWSW (240°)12.7 mph20.7 mphPartly Cloudy
1:50 PM82.4 °F39.2 °F21 %30.17 in10.0 miSSW (210°)10.4 mph16.1 mphPartly Cloudy
2:45 PM82.4 °F39.2 °F21 %30.16 in10.0 miSSW (210°)13.8 mph18.4 mphPartly Cloudy
3:55 PM80.6 °F41.0 °F24 %30.15 in10.0 miWSW (240°)10.4 mph19.6 mphScattered Clouds
4:45 PM80.6 °F41.0 °F24 %30.14 in10.0 miWSW (240°)9.2 mph16.1 mphPartly Cloudy
5:55 PM77.0 °F37.4 °F24 %30.15 in10.0 miWest (270°)12.7 mph17.3 mphPartly Cloudy
6:15 PM75.2 °F35.6 °F24 %30.15 in10.0 miWest (280°)11.5 mphClear
6:35 PM73.4 °F37.4 °F27 %30.15 in10.0 miWest (260°)9.2 mphClear
6:55 PM71.6 °F37.4 °F29 %30.16 in10.0 miWest (260°)10.4 mphClear
7:15 PM71.6 °F37.4 °F29 %30.16 in10.0 miWest (270°)6.9 mphClear
7:35 PM69.8 °F37.4 °F31 %30.16 in10.0 miWest (270°)4.6 mphClear
7:55 PM68.0 °F37.4 °F33 %30.17 in10.0 miWest (260°)4.6 mphClear
8:15 PM66.2 °F37.4 °F35 %30.18 in10.0 miSW (220°)3.5 mphClear
8:35 PM60.8 °F41.0 °F48 %30.19 in10.0 miSouth (180°)4.6 mphClear
8:55 PM60.8 °F41.0 °F48 %30.19 in10.0 miCalmClear
9:15 PM55.4 °F41.0 °F58 %30.19 in10.0 miSouth (170°)6.9 mphClear
9:35 PM55.4 °F41.0 °F58 %30.20 in10.0 miCalmClear
9:55 PM55.4 °F37.4 °F51 %30.20 in10.0 miSSE (150°)4.6 mphClear
10:15 PM53.6 °F37.4 °F54 %30.19 in10.0 miCalmClear
10:35 PM53.6 °F39.2 °F58 %30.19 in10.0 miSE (130°)3.5 mphClear
10:55 PM53.6 °F37.4 °F54 %30.19 in10.0 miSE (140°)4.6 mphClear
11:15 PM51.8 °F41.0 °F67 %30.19 in10.0 miCalmClear
11:35 PM48.2 °F41.0 °F76 %30.19 in10.0 miCalmClear
11:55 PM50.0 °F41.0 °F71 %30.19 in10.0 miCalmClear
Hourly data recorded from KTRK, located miles away from Alpine Meadows, California







STORIES FROM OUR PARTNERS